Location: Ferchesar
(52.6477°N, 12.4298°E)
Time: 05:52:28
(UTC+01:00)

Transit 2A Rocket - Pass Details

Date: 09 December 2021
Orbit: 585 x 917 km, 66.7° (Epoch: 25 January)

Event Time Altitude Azimuth Distance (km) Brightness Sun altitude
Rises 07:13:51 0° 218° (SW) 3,376 8.2 -7.9°
Reaches altitude 10° 07:16:13 10° 219° (SW) 2,486 7.5 -7.6°
Maximum altitude 07:22:04 88° 309° (NW) 903 5.4 -6.8°
Drops below altitude 10° 07:28:14 10° 40° (NE) 2,618 7.9 -6.0°
Sets 07:30:48 0° 41° (NE) 3,567 8.6 -5.7°
